Location: Mauries
(43.6188°N, 0.3322°W)
Time: 12:43:20
(UTC+00:00)

Envisat - Pass Details

Date: 14 March 2026
Orbit: 761 x 762 km, 98.4° (Epoch: 14 April)

Event Time Altitude Azimuth Distance (km) Brightness Sun altitude
Rises 03:22:34 0° 6° (N) 3,234 6.7 -31.0°
Reaches altitude 10° 03:24:58 10° 0° (N) 2,304 5.8 -30.6°
Enters shadow 03:27:05 23° 347° (NNW) 1,567 4.7 -30.3°
